When you browse on this site, cookies collect data to enhance your experience and personalize the content and advertising you see.
Visit our Privacy Policy to learn more. By continuing to use the site, you agree to this use of cookies and data.
  • In Schweiz
  • Länderverzeichnis
  • Für 7 Tage
  • Wassertemperatur
  • Wetterkarte
  • Widgets
  • user-avatar
    Anmelden

    Stündliche Wetter Tukupita

    Heute, 22 September, Sonntag

    Zeit Temperatur Niederschläge Wind Luftdruck Luftfeuchtigkeit
    00:00 +27°C° 0.1 mm 1 m/S 757 mmHg 89%
    01:00 +25°C° 0.1 mm 0 m/S 756 mmHg 88%
    02:00 +25°C° 0 mm 0 m/S 756 mmHg 88%
    03:00 +25°C° 0.3 mm 0 m/S 756 mmHg 90%
    04:00 +24°C° 0.3 mm 0 m/S 756 mmHg 91%
    05:00 +24°C° 0.3 mm 0 m/S 756 mmHg 93%
    06:00 +24°C° 0.4 mm 0 m/S 757 mmHg 93%
    07:00 +25°C° 0.4 mm 0 m/S 757 mmHg 93%
    08:00 +25°C° 0.4 mm 0 m/S 758 mmHg 92%
    09:00 +27°C° 2.4 mm 1 m/S 758 mmHg 93%
    10:00 +27°C° 2.4 mm 1 m/S 758 mmHg 94%
    11:00 +26°C° 2.4 mm 2 m/S 758 mmHg 95%
    12:00 +26°C° 1.5 mm 2 m/S 758 mmHg 96%
    13:00 +26°C° 1.5 mm 2 m/S 758 mmHg 96%
    14:00 +26°C° 1.5 mm 2 m/S 758 mmHg 97%
    15:00 +26°C° 0.2 mm 2 m/S 757 mmHg 97%
    16:00 +26°C° 0.2 mm 2 m/S 757 mmHg 97%
    17:00 +25°C° 0.2 mm 1 m/S 757 mmHg 97%
    18:00 +25°C° 0.1 mm 1 m/S 757 mmHg 97%
    19:00 +25°C° 0.1 mm 1 m/S 758 mmHg 97%
    20:00 +25°C° 0.1 mm 1 m/S 759 mmHg 98%
    21:00 +25°C° 0 mm 1 m/S 759 mmHg 98%
    22:00 +25°C° 0 mm 1 m/S 759 mmHg 98%
    23:00 +25°C° 0 mm 1 m/S 759 mmHg 98%

    Morgen, 23 September, Montag

    Zeit Temperatur Niederschläge Wind Luftdruck Luftfeuchtigkeit
    00:00 +23°C° 0.1 mm 0 m/S 759 mmHg 98%
    01:00 +23°C° 0.1 mm 0 m/S 758 mmHg 98%
    02:00 +23°C° 0.1 mm 0 m/S 758 mmHg 98%
    03:00 +23°C° 0.1 mm 0 m/S 758 mmHg 98%
    04:00 +23°C° 0.1 mm 0 m/S 758 mmHg 98%
    05:00 +23°C° 0.1 mm 0 m/S 758 mmHg 98%
    06:00 +23°C° 0.2 mm 0 m/S 759 mmHg 98%
    07:00 +23°C° 0.2 mm 0 m/S 759 mmHg 97%
    08:00 +23°C° 0.2 mm 0 m/S 760 mmHg 97%
    09:00 +24°C° 0 mm 0 m/S 760 mmHg 92%
    10:00 +25°C° 0 mm 0 m/S 760 mmHg 87%
    11:00 +26°C° 0 mm 0 m/S 760 mmHg 82%
    12:00 +27°C° 0 mm 0 m/S 759 mmHg 81%
    13:00 +29°C° 0 mm 1 m/S 758 mmHg 79%
    14:00 +29°C° 0 mm 1 m/S 758 mmHg 77%
    15:00 +29°C° 0.1 mm 1 m/S 758 mmHg 79%
    16:00 +26°C° 0.1 mm 0 m/S 757 mmHg 81%
    17:00 +26°C° 0.1 mm 0 m/S 757 mmHg 83%
    18:00 +25°C° 0.1 mm 0 m/S 757 mmHg 87%
    19:00 +27°C° 0.1 mm 1 m/S 758 mmHg 90%
    20:00 +26°C° 0.1 mm 1 m/S 758 mmHg 93%
    21:00 +26°C° 0 mm 1 m/S 758 mmHg 93%
    22:00 +24°C° 0 mm 0 m/S 759 mmHg 94%
    23:00 +24°C° 0 mm 0 m/S 759 mmHg 94%

    übermorgen, 24 September, Dienstag

    Zeit Temperatur Niederschläge Wind Luftdruck Luftfeuchtigkeit
    00:00 +24°C° 0 mm 0 m/S 758 mmHg 95%
    01:00 +23°C° 0 mm 0 m/S 758 mmHg 97%
    02:00 +23°C° 0 mm 0 m/S 757 mmHg 98%
    03:00 +23°C° 0 mm 0 m/S 758 mmHg 98%
    04:00 +23°C° 0 mm 0 m/S 758 mmHg 98%
    05:00 +23°C° 0 mm 0 m/S 758 mmHg 98%
    06:00 +24°C° 0 mm 0 m/S 758 mmHg 94%
    07:00 +25°C° 0 mm 0 m/S 759 mmHg 89%
    08:00 +28°C° 0 mm 1 m/S 759 mmHg 84%
    09:00 +30°C° 0 mm 1 m/S 759 mmHg 74%
    10:00 +32°C° 0 mm 1 m/S 759 mmHg 63%
    11:00 +35°C° 0 mm 2 m/S 759 mmHg 53%
    12:00 +36°C° 0 mm 2 m/S 758 mmHg 50%
    13:00 +37°C° 0 mm 2 m/S 757 mmHg 47%
    14:00 +38°C° 0 mm 2 m/S 757 mmHg 44%
    15:00 +36°C° 0.1 mm 2 m/S 757 mmHg 50%
    16:00 +34°C° 0.1 mm 1 m/S 756 mmHg 56%
    17:00 +33°C° 0.1 mm 1 m/S 756 mmHg 63%
    18:00 +31°C° 0.1 mm 2 m/S 757 mmHg 72%
    19:00 +29°C° 0.1 mm 2 m/S 757 mmHg 81%
    20:00 +28°C° 0.1 mm 2 m/S 757 mmHg 90%
    21:00 +27°C° 0 mm 1 m/S 758 mmHg 92%
    22:00 +27°C° 0 mm 1 m/S 758 mmHg 95%
    23:00 +26°C° 0 mm 1 m/S 759 mmHg 97%

    25 September, Mittwoch

    Zeit Temperatur Niederschläge Wind Luftdruck Luftfeuchtigkeit
    00:00 +26°C° 0 mm 1 m/S 758 mmHg 98%
    01:00 +26°C° 0 mm 1 m/S 758 mmHg 98%
    02:00 +26°C° 0 mm 1 m/S 758 mmHg 99%
    03:00 +23°C° 0 mm 0 m/S 758 mmHg 99%
    04:00 +23°C° 0 mm 0 m/S 758 mmHg 99%
    05:00 +23°C° 0 mm 0 m/S 758 mmHg 99%
    06:00 +24°C° 0 mm 0 m/S 759 mmHg 94%
    07:00 +28°C° 0 mm 1 m/S 759 mmHg 90%
    08:00 +29°C° 0 mm 1 m/S 760 mmHg 86%
    09:00 +31°C° 0 mm 1 m/S 760 mmHg 75%
    10:00 +33°C° 0 mm 1 m/S 759 mmHg 65%
    11:00 +35°C° 0 mm 1 m/S 759 mmHg 54%
    12:00 +36°C° 0 mm 1 m/S 758 mmHg 50%
    13:00 +37°C° 0 mm 1 m/S 757 mmHg 46%
    14:00 +37°C° 0 mm 1 m/S 757 mmHg 41%
    15:00 +36°C° 0.1 mm 1 m/S 756 mmHg 49%
    16:00 +36°C° 0.1 mm 2 m/S 756 mmHg 57%
    17:00 +34°C° 0.1 mm 2 m/S 756 mmHg 64%
    18:00 +31°C° 0.1 mm 2 m/S 757 mmHg 74%
    19:00 +29°C° 0.1 mm 2 m/S 757 mmHg 83%
    20:00 +27°C° 0.1 mm 2 m/S 758 mmHg 93%
    21:00 +27°C° 0.1 mm 2 m/S 758 mmHg 94%
    22:00 +26°C° 0.1 mm 1 m/S 758 mmHg 96%
    23:00 +26°C° 0.1 mm 1 m/S 758 mmHg 98%

    26 September, Donnerstag

    Zeit Temperatur Niederschläge Wind Luftdruck Luftfeuchtigkeit
    00:00 +26°C° 0 mm 1 m/S 758 mmHg 98%
    01:00 +26°C° 0 mm 1 m/S 758 mmHg 98%
    02:00 +26°C° 0 mm 1 m/S 757 mmHg 99%
    03:00 +25°C° 0 mm 1 m/S 757 mmHg 99%
    04:00 +25°C° 0 mm 1 m/S 757 mmHg 98%
    05:00 +25°C° 0 mm 1 m/S 757 mmHg 98%
    06:00 +26°C° 0 mm 1 m/S 758 mmHg 95%
    07:00 +27°C° 0 mm 1 m/S 759 mmHg 91%
    08:00 +28°C° 0 mm 1 m/S 759 mmHg 88%
    09:00 +30°C° 0 mm 1 m/S 759 mmHg 78%
    10:00 +32°C° 0 mm 1 m/S 759 mmHg 68%
    11:00 +34°C° 0 mm 1 m/S 759 mmHg 58%
    12:00 +34°C° 0.3 mm 1 m/S 758 mmHg 59%
    13:00 +35°C° 0.3 mm 2 m/S 757 mmHg 59%
    14:00 +35°C° 0.3 mm 2 m/S 756 mmHg 59%
    15:00 +34°C° 0.3 mm 2 m/S 756 mmHg 65%
    16:00 +32°C° 0.3 mm 2 m/S 756 mmHg 71%
    17:00 +31°C° 0.3 mm 2 m/S 756 mmHg 77%
    18:00 +30°C° 0 mm 2 m/S 757 mmHg 83%
    19:00 +28°C° 0.1 mm 2 m/S 757 mmHg 88%
    20:00 +27°C° 0.1 mm 2 m/S 757 mmHg 94%
    21:00 +27°C° 0 mm 1 m/S 758 mmHg 95%
    22:00 +26°C° 0 mm 1 m/S 758 mmHg 96%
    23:00 +25°C° 0 mm 1 m/S 758 mmHg 97%

    27 September, Freitag

    Zeit Temperatur Niederschläge Wind Luftdruck Luftfeuchtigkeit
    00:00 +25°C° 0 mm 1 m/S 758 mmHg 98%
    01:00 +25°C° 0 mm 1 m/S 758 mmHg 98%
    02:00 +23°C° 0 mm 0 m/S 757 mmHg 98%
    03:00 +23°C° 0 mm 0 m/S 757 mmHg 98%
    04:00 +22°C° 0 mm 0 m/S 757 mmHg 98%
    05:00 +22°C° 0 mm 0 m/S 757 mmHg 98%
    06:00 +26°C° 0 mm 1 m/S 758 mmHg 94%
    07:00 +27°C° 0 mm 1 m/S 758 mmHg 90%
    08:00 +28°C° 0 mm 1 m/S 759 mmHg 85%
    09:00 +30°C° 0.3 mm 1 m/S 759 mmHg 80%
    10:00 +31°C° 0.3 mm 2 m/S 759 mmHg 74%
    11:00 +32°C° 0.3 mm 2 m/S 759 mmHg 69%
    12:00 +34°C° 0.4 mm 1 m/S 758 mmHg 61%
    13:00 +35°C° 0.4 mm 1 m/S 757 mmHg 54%
    14:00 +36°C° 0.4 mm 1 m/S 756 mmHg 46%
    15:00 +35°C° 0 mm 1 m/S 756 mmHg 50%
    16:00 +34°C° 0 mm 1 m/S 756 mmHg 54%
    17:00 +34°C° 0 mm 2 m/S 756 mmHg 58%
    18:00 +31°C° 0 mm 2 m/S 756 mmHg 67%
    19:00 +29°C° 0 mm 1 m/S 757 mmHg 75%
    20:00 +26°C° 0 mm 1 m/S 757 mmHg 84%
    21:00 +26°C° 0 mm 1 m/S 757 mmHg 87%
    22:00 +25°C° 0 mm 1 m/S 758 mmHg 90%
    23:00 +25°C° 0 mm 1 m/S 758 mmHg 93%
    Mehr zeigen